#timestamp,LO_Frequency,Hit,StdDev 
1515178815.3,286046988.6,N
1515178835.1,286046992.8,N
1515178836.0,286046992.8,N
1515178855.8,286046993.0,N
1515178875.7,286046991.9,N
1515178895.5,286046994.7,N
1515178915.3,286046988.9,Y
1515178935.2,286046995.6,P
1515178955.9,286046997.4,N
1515178975.7,286046996.1,N
1515178995.5,286046997.8,N
1515179015.4,286046994.6,N
1515179035.2,286046993.4,Y
1515179055.0,286046999.6,P
1515179056.0,286046999.6,N
1515179075.8,286046993.7,P
1515179095.6,286046996.3,N
1515179115.4,286046997.9,N
1515179135.3,286046995.2,N
1515179155.1,286046998.3,N
1515179175.8,286046999.9,N
1515179195.7,286046998.1,N
1515179215.5,286047000.1,N
1515179235.3,286047002.1,N
1515179255.2,286047004.4,N
1515179275.9,286047005.0,N
1515179295.7,286047005.7,N
1515179315.6,286047005.7,N
1515179335.4,286047010.5,N
1515179355.2,286047008.6,N
1515179375.0,286047006.1,N
1515179375.9,286047006.1,N
1515179395.8,286047006.1,N
1515179415.6,286047006.6,N
1515179435.4,286047012.2,N
1515179455.3,286047012.3,N
1515179475.1,286047008.6,N
1515179495.8,286047006.7,N
1515179515.7,286047008.0,N
1515179535.5,286047012.3,N
1515179555.3,286047012.2,N
1515179575.2,286047012.7,N
1515179595.9,286047009.4,N
1515179615.7,286047007.7,N
1515179635.5,286047010.4,N
1515179655.4,286047010.8,N
1515179675.2,286047010.6,N
1515179695.0,286047007.0,N
1515179695.9,286047007.0,N
1515179715.8,286047005.0,N
1515179735.6,286047006.0,N
1515179755.4,286047004.1,N
1515179775.3,286047002.8,N
1515179795.1,286046996.5,N
1515179815.8,286046997.3,N
1515179835.7,286046997.0,N
1515179855.5,286046997.8,N
1515179875.3,286046995.9,N
1515179895.2,286046993.5,N
1515179915.9,286046993.3,N
1515179935.7,286046990.7,N
1515179955.6,286046992.6,N
1515179975.4,286046993.6,N
1515179995.2,286046991.9,N
1515180015.0,286046996.1,N
1515180015.9,286046996.1,N
1515180035.8,286046993.9,N
1515180055.6,286046992.5,N
1515180075.4,286046992.8,N
1515180095.3,286046994.0,N
1515180115.1,286046995.6,N
1515180135.8,286046997.4,N
1515180155.7,286046999.3,N
1515180175.5,286046997.1,N
1515180195.3,286046997.5,N
1515180215.2,286046996.2,N
1515180235.9,286046997.5,N
1515180255.7,286046997.1,N
1515180275.6,286046995.4,N
1515180295.4,286046996.3,N
1515180315.2,286046994.1,N
1515180335.1,286046996.3,N
1515180336.0,286046996.3,N
1515180355.8,286046994.0,N
1515180375.6,286047000.6,N
1515180395.4,286047000.1,N
1515180415.3,286046998.5,N
1515180435.1,286046998.8,N
1515180455.8,286046996.2,N
1515180475.7,286046995.0,N
1515180495.5,286046993.9,N
1515180515.3,286046995.5,N
1515180535.2,286046996.2,N
1515180555.9,286046992.4,Y
1515180575.7,286046996.1,P
1515180595.6,286046997.4,P
1515180615.4,286046997.6,P
1515180635.2,286046996.0,Y
1515180655.1,286047002.2,P
1515180656.0,286047002.2,N
1515180675.8,286047002.2,N
1515180695.6,286046998.3,N
1515180715.5,286047000.0,N
1515180735.3,286047001.4,N
1515180755.1,286047002.1,N
1515180775.9,286047006.0,Y
1515180795.7,286047005.9,P
1515180815.5,286047005.9,N
1515180835.4,286047004.0,N
1515180855.2,286047002.0,N
1515180875.0,286047000.9,N
1515180875.9,286047000.9,N
1515180895.8,286047004.0,N
1515180915.6,286047001.4,N
1515180935.4,286046999.7,N
1515180955.2,286046998.1,N
1515180975.1,286047000.1,N
1515180976.0,286047000.1,N
1515180995.8,286047000.7,N
1515181015.6,286046999.9,N
1515181035.5,286046998.5,N
1515181055.3,286047001.2,N
1515181075.1,286046997.7,N
1515181095.9,286046993.7,N
1515181115.7,286046997.7,N
1515181135.5,286046993.4,N
1515181155.4,286046993.7,N
1515181175.2,286046992.4,N
1515181195.0,286046993.2,N
1515181195.9,286046993.2,N
1515181215.8,286046989.7,N
1515181235.6,286046988.7,N
1515181255.4,286046988.6,N
1515181275.2,286046987.8,N
1515181295.1,286046986.7,N
1515181296.0,286046986.7,N
1515181315.8,286046984.9,N
1515181335.6,286046983.1,N
1515181355.5,286046985.1,N
1515181375.3,286046983.2,N
1515181395.1,286046983.9,N
1515181415.9,286046985.5,N
1515181435.7,286046989.4,N
1515181455.5,286046989.2,N
1515181475.4,286046992.5,N
1515181495.2,286046990.7,N
1515181515.0,286046990.4,N
1515181515.9,286046990.4,N
1515181535.8,286046992.1,N
1515181555.6,286046985.3,Y
1515181575.4,286046995.7,P
1515181595.3,286046995.4,N
1515181615.1,286047000.1,N
1515181635.8,286046997.0,N
1515181655.7,286046997.3,N
1515181675.5,286046995.4,N
1515181695.3,286046993.3,N
1515181715.2,286046993.7,N
1515181735.9,286046995.1,N
1515181755.7,286046994.9,N
1515181775.6,286046998.5,N
1515181795.4,286047001.1,N
1515181815.2,286047000.8,N
1515181835.0,286047001.0,N
1515181835.9,286047001.0,N
1515181855.8,286047001.1,N
1515181875.6,286047000.3,N
1515181895.4,286047000.5,N
1515181915.3,286047002.8,N
1515181935.1,286047004.3,N
1515181955.8,286047005.5,N
1515181975.7,286047007.5,N
1515181995.5,286047009.7,N
1515182015.3,286047015.6,Y
1515182035.2,286047016.7,P
1515182055.9,286047019.3,N
1515182075.7,286047023.4,N
1515182095.6,286047025.2,N
1515182115.4,286047022.8,N
1515182135.2,286047019.0,N
1515182155.1,286047017.4,N
1515182156.0,286047017.4,N
1515182175.8,286047020.4,N
1515182195.6,286047019.5,N
1515182215.5,286047020.4,Y
1515182235.3,286047000.6,P
1515182255.1,286046996.5,N
1515182275.9,286046999.3,N
1515182295.7,286046999.3,N
1515182315.5,286046996.8,N
1515182335.3,286047002.7,N
1515182355.2,286047003.0,N
1515182375.0,286047001.7,N
1515182375.9,286047001.7,N
1515182395.7,286047004.4,N
